Flag for U.S.A. Weather past 2 weeks in Jackson, Mississippi, U.S.A.

Now
45 °F

Light rain. Mostly cloudy.


Feels Like: 39 °F
Forecast: 43 / 55 °F
Wind: 12 mph from East

Location: Hawkins Field

Current Time: Dec 19, 2014 at 7:13:16 PM

Latest Report: Dec 19, 2014 at 6:53 PM


Visibility: 8 mi

Pressure: 30.12 "Hg

Humidity: 93%

Dew point: 43 °F

Location of JacksonLocation

Historic Weather in Jackson — Graph

°F

Jackson temperature yesterday

Maximum temperature yesterday: 51 °F (at 3:53 PM)
Minimum temperature yesterday: 45 °F (at 12:53 AM)
Average temperature yesterday: 47 °F

Past Weeks' High & Low Weather Summary

 TemperatureHumidityPressure
High76 °F (Dec 5, 1:53 PM)97% (Dec 5, 2:53 AM)30.40 "Hg (Dec 5, 2:53 AM)
Low32 °F (Dec 11, 4:53 AM)28% (Dec 9, 1:53 PM)29.87 "Hg (Dec 15, 2:53 PM)
Average51 °F75%30.20 "Hg
* Reported Dec 4 5:53 PM — Dec 19 5:53 PM, Jackson, Weather by CustomWeather, © 2014

Note: Actual official high and low records may vary slightly from our data, if they occured in-between our weather recording intervals... More about our weather records

Advertising

Jackson weather history for previous 24 hours

 ConditionsComfort  
Time TempWeatherWind HumidityBarometerVisibility
5:53 PM
Dec 19
45 °FLight rain. Mostly cloudy.5 mph93%30.15 "Hg8 mi
4:53 PM46 °FLight rain. Fog.3 mph93%30.15 "Hg6 mi
3:53 PM46 °FLight rain. Fog.5 mph89%30.14 "Hg6 mi
2:53 PM46 °FLight rain. Mostly cloudy.6 mph89%30.12 "Hg9 mi
2:01 PM47 °FRain. Fog.6 mph90%30.14 "Hg4 mi
12:53 PM48 °FRain. Overcast.7 mph83%30.13 "Hg4 mi
11:53 AM48 °FLight rain. Overcast.7 mph77%30.14 "Hg10 mi
10:53 AM48 °FLight rain. Mostly cloudy.5 mph80%30.19 "Hg8 mi
9:53 AM48 °FLight rain. Overcast.3 mph68%30.22 "Hg10 mi
8:53 AM49 °FOvercast.9 mph59%30.16 "Hg10 mi
7:53 AM48 °FOvercast.6 mph61%30.18 "Hg10 mi
6:53 AM48 °FOvercast.8 mph63%30.14 "Hg10 mi
5:53 AM48 °FOvercast.8 mph66%30.14 "Hg10 mi
4:53 AM48 °FOvercast.7 mph66%30.11 "Hg10 mi
3:53 AM48 °FOvercast.5 mph71%30.13 "Hg10 mi
2:53 AM48 °FOvercast.6 mph83%30.14 "Hg10 mi
1:53 AM48 °FOvercast.6 mph83%30.14 "Hg10 mi
12:53 AM48 °FOvercast.No wind86%30.16 "Hg10 mi
11:53 PM
Dec 18
48 °FOvercast.No wind86%30.17 "Hg9 mi
10:53 PM47 °FClear.5 mph90%30.17 "Hg8 mi
9:53 PM47 °FPartly cloudy.No wind90%30.18 "Hg9 mi
8:53 PM47 °FFog.3 mph90%30.17 "Hg4 mi
7:53 PM48 °FClear.3 mph86%30.16 "Hg9 mi
Weather by CustomWeather, © 2014

See weather overviewHow to use our weather pages